Location: *
(48.8667°N, 2.3331°E)
Time: 03:31:57
(UTC+00:00)

Cosmos 1174 - Pass Details

Date: 09 April 2020
Orbit: 371 x 1148 km, 66.1° (Epoch: 26 May)

Event Time Altitude Azimuth Distance (km) Brightness Sun altitude
Rises 19:53:50 0° 326° (NW) 2,599 8.5 -13.0°
Reaches altitude 10° 19:55:50 10° 332° (NNW) 1,806 7.4 -13.3°
Maximum altitude 19:59:48 54° 50° (NE) 765 4.4 -13.9°
Enters shadow 20:02:42 23° 120° (ESE) 1,480 5.3 -14.3°
